Regional Weather Roundup
Issued by NWS Little Rock, AR

Home | Current Version | Previous Version | Text Only | Print | Product List | Glossary On
Versions: 1 2 3 4 5 6 7 8 9 10 11 12 13 14 15 16 17 18 19 20 21 22 23 24 25 26 27 28 29 30 31
000
ASUS44 KLZK 251605
RWRLZK

WEATHER ROUNDUP FOR ARKANSAS
NATIONAL WEATHER SERVICE LITTLE ROCK AR
1000 AM CST SUN FEB 25 2018

NOTE: "FAIR" INDICATES FEW OR NO CLOUDS BELOW 12,000 FEET WITH NO
SIGNIFICANT WEATHER AND/OR OBSTRUCTIONS TO VISIBILITY.

ARZ001-003-010-029-251700-
NORTHWEST ARKANSAS

CITY           SKY/WX    TMP DP  RH WIND       PRES   REMARKS
FAYETTEVILLE   SUNNY     43  39  86 CALM      30.11F
FORT SMITH     LGT RAIN  42  42 100 E7        30.13S
HARRISON       SUNNY     43  31  62 SE5       30.12R
BENTONVILLE    SUNNY     42  34  73 SE7       30.13S
ROGERS         SUNNY     42  36  79 SE5       30.11F
SILOAM SPGS    SUNNY     43  37  79 SE5       30.12S
HIGHFILL       SUNNY     43  36  76 S7        30.11F
SPRINGDALE     SUNNY     41  39  93 S6        30.12F
$$

ARZ004-005-016-251700-
NORTH CENTRAL ARKANSAS

CITY           SKY/WX    TMP DP  RH WIND       PRES   REMARKS
BATESVILLE     FAIR      45  34  65 E5        30.16S
FLIPPIN        SUNNY     44  36  73 VRB3      30.15S
MTN HOME       SUNNY     42  37  82 CALM      30.12S
$$

ARZ040-041-251700-
WEST CENTRAL ARKANSAS

CITY           SKY/WX    TMP DP  RH WIND       PRES   REMARKS
MENA           SUNNY     46  41  81 CALM      30.12F
MOUNT IDA      MOSUNNY   46  42  86 CALM      30.10S
$$

ARZ009-017-025-026-028-251700-
NORTHEAST ARKANSAS

CITY           SKY/WX    TMP DP  RH WIND       PRES   REMARKS
JONESBORO      FAIR      48  35  60 N7        30.16R
NEWPORT          N/A     46  36  68 MISG      30.17S
WALNUT RIDGE   FAIR      44  32  62 CALM      30.17S
BLYTHEVILLE    FAIR      49  37  63 N5        30.16R
$$

ARZ022-023-033-042-044-251700-
CENTRAL ARKANSAS

CITY           SKY/WX    TMP DP  RH WIND       PRES   REMARKS
LITTLE ROCK    PTSUNNY   48  35  60 E8        30.16R
N LITTLE ROCK    N/A     48  38  67 E7        30.13R
JACKSONVILLE   FAIR      49  36  61 NE8       30.14R
SEARCY         FAIR      49  37  63 NE8       30.16R
HOT SPRINGS    FAIR      49  37  63 E5        30.14R
RUSSELLVILLE   SUNNY     48  36  63 E5        30.15R
CLINTON        FAIR      43  39  87 CALM      30.16R
$$

ARZ036-251700-
EAST ARKANSAS

CITY           SKY/WX    TMP DP  RH WIND       PRES   REMARKS
WEST MEMPHIS   FAIR      50  42  74 N6        30.14S
$$

ARZ050-053-066-070-073-251700-
SOUTHWEST ARKANSAS

CITY           SKY/WX    TMP DP  RH WIND       PRES   REMARKS
ARKADELPHIA    FAIR      50  42  74 E5        30.15S
CAMDEN         FAIR      54  45  71 NE5       30.12F
TEXARKANA      FAIR      53  46  77 VRB6      30.09F
EL DORADO      FAIR      53  50  89 E8        30.12S
DE QUEEN       PTSUNNY   49  44  83 E10       30.10F
$$

ARZ056-057-069-251700-
SOUTHEAST ARKANSAS

CITY           SKY/WX    TMP DP  RH WIND       PRES   REMARKS
PINE BLUFF     FAIR      51  40  65 E8        30.14F
STUTTGART      FAIR      50  39  66 E6        30.15R
MONTICELLO     FAIR      54  48  80 E8        30.13S

$$






USA.gov is the U.S. government's official web portal to all federal, state and local government web resources and services.